[[{"header":{"parameterUnit":"m.s-1","parameterCategory":1,"la1":30.2991,"la2":30.254,"lo1":-89.0895,"lo2":-89.0444,"dx":0.0017,"dy":0.0017,"nx":28,"ny":28,"refTime":"2022-11-03T21:00:00:Z","depth":0,"parameterNumber":2,"parameterNumberName":"U-component_of_WINDS"},"data":[0,0,0,0,0,0,0,0,0,0,0,0,0,0,0,0,0,0,0,0,0,0,0,0,0,0,0,0,0,0,0,0,0,0,0,0,0,0,0,0,0,0,0,0,0,0,0,0,0,0,0,0,0,0,0,0,0,0,-3.5643,-3.5644,0,-3.574,-3.5741,-3.5742,-3.5709,-3.5706,-3.5704,-3.5702,-3.5801,-3.5805,-3.581,0,0,0,0,0,0,0,0,0,0,0,0,0,-3.5431,-3.5435,-3.5643,-3.5644,-3.5646,-3.574,-3.5741,-3.5742,-3.5709,-3.5706,-3.5704,-3.5701,-3.5799,-3.5804,-3.581,0,0,0,0,0,0,0,0,0,0,0,0,0,-3.5525,-3.5437,-3.5643,-3.564,-3.5641,-3.5739,-3.5741,-3.5743,-3.5709,-3.5706,-3.5703,-3.57,-3.5797,-3.5804,-3.5811,-3.5917,0,0,-3.5832,-3.5835,0,0,0,0,0,0,0,0,-3.552,-3.5533,-3.564,-3.5641,-3.5642,-3.5709,-3.5702,-3.5801,-3.571,-3.5683,-3.5702,-3.5698,-3.5773,-3.5781,-3.5806,-3.5922,-3.5926,-3.5832,-3.5837,-3.584,-3.5842,0,0,0,0,0,0,0,-3.5513,-3.5529,-3.5681,-3.5641,-3.5643,-3.5635,-3.5645,-3.5721,-3.5745,-3.5686,-3.5683,-3.5695,-3.5773,-3.58,-3.5808,-3.5927,-3.5832,-3.5838,-3.5843,-3.5845,-3.6137,-3.614,0,0,0,0,0,0,-3.5506,-3.5523,-3.5678,-3.5684,-3.5572,-3.5641,-3.5652,-3.5691,-3.5744,-3.5749,-3.5698,-3.5693,-3.579,-3.58,-3.5812,-3.594,-3.584,-3.5846,-3.585,-3.6133,-3.6138,-3.6142,0,0,0,0,0,0,-3.5502,-3.552,-3.5674,-3.5603,-3.5622,-3.5648,-3.5692,-3.5694,-3.5721,-3.5753,-3.5757,-3.5721,-3.5788,-3.5802,-3.5892,-3.5943,-3.5849,-3.5855,-3.6129,-3.6135,-3.614,-3.6198,0,0,0,0,0,0,-3.5496,-3.5519,-3.5559,-3.5605,-3.5626,-3.5752,-3.5695,-3.5698,-3.5733,-3.5728,-3.5776,-3.5781,-3.5786,-3.5882,-3.5899,-3.5951,-3.5861,-3.6124,-3.6132,-3.6138,-3.6191,-3.6204,-3.6216,0,0,0,0,0,-3.5489,-3.5571,-3.5561,-3.558,-3.5677,-3.5755,-3.5768,-3.5772,-3.5738,-3.5778,-3.5799,-3.5779,-3.5935,-3.5891,-3.591,-3.5965,-3.6121,-3.613,-3.6137,-3.6186,-3.6202,-3.6215,0,0,0,0,0,0,-3.553,-3.5577,-3.5566,-3.5666,-3.5707,-3.5749,-3.5801,-3.5789,-3.584,-3.5833,-3.5836,-3.5848,-3.594,-3.5962,-3.5911,-3.6072,-3.6023,-3.6035,-3.6054,-3.6069,-3.6081,-3.6073,-3.5867,0,0,0,0,0,-3.5551,-3.5611,-3.5649,-3.5733,-3.5754,-3.5775,-3.5809,-3.5809,-3.5851,-3.5868,-3.5895,-3.5937,-3.5996,-3.6034,-3.609,-3.6195,-3.6205,-3.6243,-3.6255,-3.6265,-3.6275,-3.6333,-3.6351,-3.6168,-3.6168,-3.6168,0,0,-3.5595,-3.5628,-3.5665,-3.5743,-3.5774,-3.5836,-3.5789,-3.5856,-3.5902,-3.5878,-3.5964,-3.5986,-3.6033,-3.6132,-3.6177,-3.6153,-3.6328,-3.6275,-3.6283,-3.6288,-3.6344,-3.6361,-3.6376,-3.6174,-3.6173,-3.6172,0,0,-3.5706,-3.5737,-3.5811,-3.5844,-3.5893,-3.5906,-3.5925,-3.597,-3.5983,-3.607,-3.6054,-3.6109,-3.621,-3.6244,-3.6275,-3.6403,-3.6386,-3.6421,-3.6484,-3.6541,-3.6555,-3.6568,-3.6613,-3.6629,-3.6431,-3.6431,-3.6432,0,-3.5753,-3.5845,-3.585,-3.592,-3.5954,-3.5937,-3.6013,-3.6045,-3.6109,-3.6134,-3.6107,-3.6234,-3.6265,-3.6371,-3.6403,-3.6429,-3.6449,-3.6414,-3.6553,-3.6566,-3.6578,-3.6621,-3.6638,-3.6435,-3.6435,-3.6434,-3.6434,0,-3.5902,-3.5966,-3.6021,-3.6084,-3.6126,-3.6198,-3.6214,-3.6255,-3.6253,-3.627,-3.6359,-3.6396,-3.6459,-3.6485,-3.6483,-3.6592,-3.6576,-3.6551,-3.6502,-3.6599,-3.6639,-3.6656,-3.6441,-3.6439,-3.6438,-3.6437,0,0,-3.6038,-3.6106,-3.6125,-3.6155,-3.6209,-3.6259,-3.6332,-3.6394,-3.6429,-3.6476,-3.6536,-3.6624,-3.6602,-3.6637,-3.6639,-3.6689,-3.6788,-3.6658,-3.666,-3.668,-3.6911,-3.6928,-3.6947,-3.6779,-3.6782,-3.6785,-3.6907,0,-3.6152,-3.6278,-3.6287,-3.6401,-3.6461,-3.6448,-3.6511,-3.6551,-3.657,-3.6624,-3.6644,-3.6705,-3.6672,-3.6693,-3.6743,-3.6765,-3.6834,-3.6757,-3.6835,-3.6837,-3.6821,-3.6968,-3.6986,-3.7099,-3.6923,-3.6925,-3.6927,0,-3.6302,-3.6353,-3.6474,-3.6521,-3.6547,-3.6603,-3.6662,-3.6714,-3.6761,-3.6771,-3.6812,-3.6808,-3.6883,-3.6833,-3.6936,-3.6884,-3.6917,-3.6933,-3.6938,-3.6943,-3.6887,-3.6977,-3.7135,-3.7152,-3.6952,-3.695,-3.6949,0,-3.6388,-3.6488,-3.6573,-3.6599,-3.6657,-3.6697,-3.6723,-3.6766,-3.6804,-3.6856,-3.6881,-3.6941,-3.6973,-3.702,-3.7033,-3.6996,-3.7137,-3.7088,-3.7147,-3.7146,-3.7175,-3.7172,-3.734,-3.7199,-3.7199,-3.7198,-3.7198,0,-3.6514,-3.6588,-3.6613,-3.6665,-3.6749,-3.6758,-3.6841,-3.6864,-3.6904,-3.6961,-3.6954,-3.7007,-3.7022,-3.7079,-3.7089,-3.7174,-3.7189,-3.7199,-3.72,-3.7199,-3.7197,-3.7218,-3.721,-3.7203,-3.7202,-3.7201,-3.72,0,-3.6623,-3.6643,-3.6735,-3.6783,-3.6797,-3.6857,-3.6898,-3.6949,-3.6967,-3.704,-3.7057,-3.7086,-3.7153,-3.7171,-3.7251,-3.7259,-3.7358,-3.7353,-3.7342,-3.7341,-3.7399,-3.7393,-3.7584,-3.7609,-3.7453,-3.7455,-3.7456,0,-3.6701,-3.6758,-3.6813,-3.6851,-3.6879,-3.694,-3.6979,-3.6992,-3.7033,-3.7092,-3.7136,-3.7202,-3.7255,-3.7363,-3.7391,-3.7452,-3.7448,-3.7511,-3.7457,-3.7454,-3.7448,-3.7444,-3.745,-3.752,-3.7522,-3.7523,-3.7525,0,-3.6837,-3.6845,-3.6901,-3.6962,-3.7009,-3.7057,-3.7104,-3.7135,-3.7155,-3.7202,-3.727,-3.7312,-3.7394,-3.746,-3.7523,-3.755,-3.7541,-3.7542,-3.7559,-3.7556,-3.7547,-3.7552,-3.7368,-3.7537,-3.7536,-3.7535,-3.7534,-3.7534,-3.6933,-3.6983,-3.703,-3.7094,-3.713,-3.7174,-3.7225,-3.7251,-3.7308,-3.7376,-3.7381,-3.7455,-3.7503,-3.7586,-3.7617,-3.7676,-3.7657,-3.7682,-3.7687,-3.7693,-3.7697,-3.754,-3.7688,-3.7687,-3.7687,-3.7687,-3.7687,0,-3.7068,-3.7098,-3.7157,-3.7222,-3.7273,-3.7261,-3.7313,-3.7356,-3.7421,-3.7467,-3.752,-3.7599,-3.7664,-3.7699,-3.7763,-3.7804,-3.7801,-3.782,-3.7816,-3.7823,-3.7711,-3.7689,-3.7821,-3.7821,-3.7821,-3.7821,-3.7821,-3.7821,-3.7144,-3.7228,-3.7242,-3.7346,-3.7376,-3.7449,-3.7479,-3.752,-3.7557,-3.7646,-3.77,-3.7722,-3.7764,-3.7832,-3.7891,-3.7899,-3.7923,-3.7944,-3.795,-3.7844,-3.7831,-3.7817,-3.7797,-3.7949,-3.795,-3.8057,-3.8058,-3.8059]},{"header":{"parameterUnit":"m.s-1","parameterCategory":1,"la1":30.2991,"la2":30.254,"lo1":-89.0895,"lo2":-89.0444,"dx":0.0017,"dy":0.0017,"nx":28,"ny":28,"refTime":"2022-11-03T21:00:00:Z","depth":0,"parameterNumber":3,"parameterNumberName":"V-component_of_WINDS"},"data":[0,0,0,0,0,0,0,0,0,0,0,0,0,0,0,0,0,0,0,0,0,0,0,0,0,0,0,0,0,0,0,0,0,0,0,0,0,0,0,0,0,0,0,0,0,0,0,0,0,0,0,0,0,0,0,0,0,0,2.6278,2.6278,0,2.6275,2.6275,2.6275,2.6236,2.6235,2.6234,2.6233,2.6229,2.623,2.623,0,0,0,0,0,0,0,0,0,0,0,0,0,2.625,2.6251,2.6278,2.6278,2.6278,2.6275,2.6275,2.6275,2.6236,2.6235,2.6234,2.6232,2.6229,2.623,2.6231,0,0,0,0,0,0,0,0,0,0,0,0,0,2.6256,2.6251,2.6278,2.6258,2.6257,2.6276,2.6275,2.6275,2.6236,2.6235,2.6233,2.6232,2.6228,2.6229,2.6231,2.6268,0,0,2.6234,2.6235,0,0,0,0,0,0,0,0,2.6256,2.6257,2.6261,2.626,2.6258,2.6254,2.6264,2.6273,2.6237,2.6244,2.6233,2.6231,2.6239,2.6239,2.6242,2.6268,2.6268,2.6235,2.6235,2.6236,2.6236,0,0,0,0,0,0,0,2.6256,2.6257,2.6277,2.6261,2.6259,2.625,2.6249,2.6265,2.625,2.6243,2.624,2.6241,2.6237,2.624,2.6241,2.6268,2.6235,2.6236,2.6236,2.6237,2.6327,2.6328,0,0,0,0,0,0,2.6258,2.6257,2.6277,2.6277,2.6253,2.6251,2.625,2.6257,2.6249,2.6247,2.6242,2.6239,2.6239,2.624,2.6241,2.6285,2.6236,2.6237,2.6238,2.6325,2.6327,2.6329,0,0,0,0,0,0,2.6257,2.626,2.6277,2.6266,2.6268,2.6253,2.6261,2.6258,2.6261,2.6248,2.6245,2.6248,2.6238,2.6239,2.6262,2.6284,2.6238,2.6239,2.6323,2.6326,2.6328,2.6373,0,0,0,0,0,0,2.6257,2.626,2.6274,2.6267,2.6269,2.6299,2.6262,2.6259,2.6263,2.6259,2.6253,2.6251,2.6237,2.6261,2.6263,2.6285,2.624,2.6321,2.6324,2.6327,2.6369,2.6377,2.6383,0,0,0,0,0,2.6256,2.6286,2.6275,2.6278,2.6286,2.63,2.6301,2.6284,2.6265,2.6279,2.6271,2.6251,2.6282,2.6263,2.6266,2.6288,2.6319,2.6323,2.6327,2.6366,2.6375,2.6383,0,0,0,0,0,0,2.6295,2.6285,2.6272,2.6301,2.6302,2.6293,2.631,2.6294,2.63,2.6296,2.6275,2.6274,2.63,2.6297,2.6276,2.6325,2.6297,2.6302,2.6326,2.6334,2.6341,2.6341,2.6241,0,0,0,0,0,2.6308,2.632,2.6311,2.6337,2.6338,2.6325,2.633,2.6318,2.6317,2.6317,2.6311,2.6311,2.6321,2.6328,2.6336,2.6369,2.6368,2.6386,2.6393,2.6399,2.6402,2.642,2.6429,2.6341,2.6341,2.6341,0,0,2.6333,2.6329,2.6338,2.6345,2.6344,2.6358,2.6325,2.634,2.635,2.6319,2.6341,2.6337,2.6336,2.6364,2.6377,2.6362,2.6427,2.6403,2.6408,2.6408,2.6425,2.6433,2.6441,2.6343,2.6343,2.6342,0,0,2.6385,2.6383,2.6406,2.6406,2.6406,2.6397,2.6402,2.6397,2.6393,2.6414,2.6392,2.6404,2.642,2.6421,2.6423,2.6479,2.6461,2.6482,2.6517,2.6535,2.6542,2.6548,2.6568,2.6575,2.6486,2.6487,2.6487,0,2.6416,2.6436,2.6419,2.6437,2.6441,2.6415,2.6438,2.6439,2.6441,2.6444,2.6429,2.645,2.6448,2.6477,2.649,2.6493,2.6499,2.6482,2.6542,2.6548,2.6554,2.6572,2.658,2.6489,2.6489,2.6489,2.6488,0,2.6474,2.6489,2.6507,2.6511,2.6517,2.6537,2.6524,2.6532,2.652,2.6513,2.6536,2.6532,2.654,2.6546,2.6533,2.6573,2.6565,2.6546,2.6517,2.6565,2.6582,2.6589,2.6493,2.6492,2.6491,2.6491,0,0,2.6549,2.6545,2.6552,2.6554,2.6553,2.6564,2.6583,2.6591,2.6599,2.6602,2.6618,2.6634,2.6618,2.6621,2.6608,2.6624,2.6669,2.6604,2.6603,2.6616,2.6713,2.6727,2.6735,2.6657,2.6659,2.666,2.6713,0,2.66,2.6633,2.662,2.6654,2.6668,2.6644,2.6661,2.6663,2.6657,2.6668,2.6661,2.6673,2.665,2.6652,2.6667,2.666,2.6688,2.6656,2.6672,2.6672,2.6672,2.6744,2.6758,2.6809,2.672,2.6721,2.6722,0,2.6663,2.667,2.6706,2.6704,2.6709,2.6724,2.6732,2.6742,2.6744,2.6738,2.6743,2.6728,2.6747,2.672,2.6746,2.6725,2.6731,2.6729,2.673,2.673,2.6699,2.6746,2.6824,2.6832,2.6732,2.6731,2.6731,0,2.6714,2.6732,2.6757,2.6759,2.6757,2.6769,2.6768,2.6768,2.6775,2.6781,2.6785,2.6794,2.6798,2.6805,2.6793,2.6774,2.6821,2.6792,2.6817,2.6818,2.6827,2.6826,2.6907,2.6832,2.6832,2.6832,2.6832,0,2.6772,2.6795,2.678,2.6795,2.682,2.6805,2.6831,2.6828,2.6828,2.6842,2.6823,2.6836,2.6819,2.6831,2.6822,2.6845,2.6848,2.6844,2.6841,2.6845,2.6846,2.6848,2.6844,2.6834,2.6833,2.6833,2.6833,0,2.6832,2.6824,2.6849,2.6846,2.6845,2.6864,2.6861,2.6875,2.6869,2.6887,2.6891,2.6881,2.6894,2.6883,2.6895,2.6889,2.6921,2.6913,2.692,2.6918,2.6943,2.6941,2.7028,2.7039,2.6957,2.6958,2.6958,0,2.6869,2.6887,2.6886,2.6895,2.6896,2.691,2.6916,2.6903,2.6911,2.6915,2.6928,2.694,2.6949,2.6971,2.6965,2.6975,2.6967,2.6997,2.6968,2.6972,2.6967,2.6966,2.6968,2.7002,2.7003,2.7004,2.7005,0,2.6936,2.6931,2.6942,2.6952,2.6961,2.6968,2.6974,2.6982,2.6968,2.6978,2.6992,2.6999,2.7013,2.7025,2.7033,2.7032,2.7016,2.7014,2.702,2.7024,2.7028,2.7026,2.6936,2.7012,2.7011,2.7011,2.701,2.701,2.6986,2.7001,2.7003,2.7016,2.702,2.7026,2.7039,2.7035,2.7047,2.7057,2.7049,2.7066,2.7068,2.7077,2.7079,2.7092,2.7079,2.7088,2.709,2.7093,2.7097,2.7027,2.7093,2.7093,2.7093,2.7093,2.7092,0,2.7051,2.7053,2.7065,2.7074,2.7085,2.707,2.7076,2.7086,2.7101,2.7105,2.7114,2.7131,2.7143,2.7139,2.7149,2.7161,2.7154,2.7164,2.7163,2.7163,2.7107,2.71,2.7169,2.7169,2.7169,2.7169,2.7169,2.7169,2.7087,2.7112,2.7108,2.7134,2.7135,2.7152,2.7156,2.7162,2.7165,2.7184,2.7195,2.7192,2.7193,2.7204,2.7215,2.7213,2.7218,2.7231,2.7227,2.7174,2.7167,2.7159,2.7153,2.7232,2.7232,2.7281,2.7282,2.7282]}]]